FW4564 Weather Reports


Display with metric or nautical units.
time (UTC)temp
F
wind
direction
speed
MPH
gust
MPH
rain 1hr
in
rain 24hr
in
rain mn
in
humidity
%
barometer
mb
20260503183403 67 258 7.0 12.0 0.00 0.00 0.00 43 1004.1
20260503181902 66 273 9.0 14.0 0.00 0.00 0.00 43 1004.1
20260503180402 66 300 11.0 11.0 0.00 0.00 0.00 43 1004.1
20260503173401 65 260 8.0 16.0 0.00 0.00 0.00 43 1004.4
20260503171901 64 256 9.0 13.0 0.00 0.00 0.00 46 1004.4
20260503170403 63 235 12.0 16.0 0.00 0.00 0.00 44 1004.7
20260503150403 59 236 18.0 23.0 0.00 0.00 0.00 51 1006.1
20260503130403 53 267 3.0 9.0 0.00 0.00 0.00 57 1006.8
20260503110402 48 251 4.0 5.0 0.00 0.00 0.00 61 1007.1
20260503080902 49 211 4.0 4.0 0.00 0.00 0.00 61 1009.1
20260503072903 50 281 5.0 7.0 0.00 0.00 0.00 58 1009.1
20260503071404 49 237 5.0 5.0 0.00 0.00 0.00 60 1009.1
20260503054405 46 33 1.0 2.0 0.00 0.00 0.00 65 1010.2
20260503053402 46 107 0.0 3.0 0.00 0.00 0.00 67 1010.2
20260503051901 47 48 0.0 2.0 0.00 0.00 0.00 66 1010.2
20260503050401 47 97 0.0 0.0 0.00 0.00 0.00 63 1010.2
20260503042903 46 177 2.0 3.0 0.00 0.00 0.00 61 1010.5
20260503041402 46 102 2.0 3.0 0.00 0.00 0.00 63 1010.5
20260503034404 48 180 0.0 2.0 0.00 0.00 0.00 64 1010.8
20260503032903 48 193 1.0 2.0 0.00 0.00 0.00 65 1011.2
20260503031401 48 32 2.0 2.0 0.00 0.00 0.00 65 1011.5
20260503025903 47 126 2.0 3.0 0.00 0.00 0.00 63 1011.5
20260503022903 48 194 0.0 1.0 0.00 0.00 0.00 60 1011.9
20260503020401 49 172 1.0 2.0 0.00 0.00 0.00 55 1011.9
20260503014901 50 140 0.0 0.0 0.00 0.00 0.00 53 1011.9
20260503011903 51 139 0.0 0.0 0.00 0.00 0.00 49 1011.9
20260503010403 52 281 1.0 2.0 0.00 0.00 0.00 48 1011.9
20260503004902 54 216 1.0 3.0 0.00 0.00 0.00 48 1011.9
20260503003402 55 285 2.0 4.0 0.00 0.00 0.00 45 1011.9
20260503001902 56 275 4.0 7.0 0.00 0.00 0.00 41 1012.2
20260503000402 57 247 3.0 6.0 0.00 0.00 0.00 39 1012.2
20260502234903 57 272 2.0 11.0 0.00 0.00 0.00 36 1012.2
20260502233401 58 301 4.0 8.0 0.00 0.00 0.00 35 1012.2
20260502231901 59 283 4.0 7.0 0.00 0.00 0.00 33 1012.2
20260502230403 58 295 8.0 14.0 0.00 0.00 0.00 35 1012.5
20260502224902 59 263 6.0 11.0 0.00 0.00 0.00 35 1012.5
20260502223403 59 254 7.0 9.0 0.00 0.00 0.00 36 1012.5
20260502220404 59 241 7.0 9.0 0.00 0.00 0.00 36 1012.9
20260502214902 59 267 7.0 11.0 0.00 0.00 0.00 34 1012.9
20260502213902 59 210 7.0 14.0 0.00 0.00 0.00 34 1013.2
20260502210902 58 324 8.0 13.0 0.00 0.00 0.00 36 1013.5
20260502205402 57 240 11.0 12.0 0.00 0.00 0.00 36 1013.9
20260502203902 58 233 6.0 10.0 0.00 0.00 0.00 35 1013.9
20260502202402 58 263 11.0 11.0 0.00 0.00 0.00 35 1014.2
20260502200904 58 289 9.0 10.0 0.00 0.00 0.00 34 1014.2
20260502195404 57 266 7.0 14.0 0.00 0.00 0.00 35 1014.6
20260502193902 57 312 6.0 10.0 0.00 0.00 0.00 36 1014.9
20260502192402 58 271 10.0 11.0 0.00 0.00 0.00 35 1014.9
20260502190903 56 272 6.0 15.0 0.00 0.00 0.00 36 1015.2
20260502185901 56 249 8.0 14.0 0.00 0.00 0.00 34 1015.2